• In Hungary
  • List of Countries
  • For 7 days
  • Water Temperature
  • Satellite Maps
  • Weather Map
  • News
  • Weather Widgets
  • user-avatar
    Login

    Hourly Weather Newcastle

    Today, 16 July, Monday

    Time Temperature Precipitation Wind Pressure Humidity
    00:00 +5°C° 0 mm 3 mps 760 mmHg 56%
    01:00 +5°C° 0 mm 3 mps 760 mmHg 56%
    02:00 +4°C° 0 mm 4 mps 760 mmHg 57%
    03:00 +4°C° 0 mm 4 mps 760 mmHg 57%
    04:00 +4°C° 0 mm 4 mps 760 mmHg 58%
    05:00 +4°C° 0 mm 4 mps 760 mmHg 59%
    06:00 +3°C° 0 mm 4 mps 760 mmHg 60%
    07:00 +3°C° 0 mm 4 mps 760 mmHg 61%
    08:00 +6°C° 0 mm 5 mps 760 mmHg 55%
    09:00 +8°C° 0 mm 5 mps 760 mmHg 48%
    10:00 +11°C° 0 mm 6 mps 760 mmHg 39%
    11:00 +13°C° 0 mm 5 mps 759 mmHg 36%
    12:00 +15°C° 0 mm 5 mps 759 mmHg 33%
    13:00 +16°C° 0 mm 5 mps 759 mmHg 30%
    14:00 +17°C° 0 mm 4 mps 758 mmHg 32%
    15:00 +16°C° 0 mm 3 mps 758 mmHg 35%
    16:00 +16°C° 0 mm 3 mps 758 mmHg 38%
    17:00 +13°C° 0 mm 3 mps 759 mmHg 40%
    18:00 +11°C° 0 mm 4 mps 759 mmHg 42%
    19:00 +10°C° 0 mm 4 mps 760 mmHg 44%
    20:00 +10°C° 0 mm 4 mps 760 mmHg 44%
    21:00 +8°C° 0 mm 5 mps 761 mmHg 44%
    22:00 +8°C° 0 mm 5 mps 761 mmHg 45%
    23:00 +8°C° 0 mm 5 mps 761 mmHg 46%

    Tomorrow, 17 July, Tuesday

    Time Temperature Precipitation Wind Pressure Humidity
    00:00 +7°C° 0 mm 5 mps 761 mmHg 48%
    01:00 +7°C° 0 mm 4 mps 761 mmHg 49%
    02:00 +7°C° 0 mm 5 mps 761 mmHg 49%
    03:00 +7°C° 0 mm 5 mps 761 mmHg 49%
    04:00 +6°C° 0 mm 5 mps 761 mmHg 49%
    05:00 +7°C° 0 mm 5 mps 761 mmHg 48%
    06:00 +7°C° 0 mm 5 mps 761 mmHg 48%
    07:00 +7°C° 0 mm 5 mps 762 mmHg 47%
    08:00 +9°C° 0 mm 6 mps 762 mmHg 43%
    09:00 +11°C° 0 mm 6 mps 762 mmHg 39%
    10:00 +14°C° 0 mm 6 mps 762 mmHg 36%
    11:00 +16°C° 0 mm 6 mps 761 mmHg 33%
    12:00 +17°C° 0 mm 6 mps 761 mmHg 30%
    13:00 +20°C° 0 mm 6 mps 760 mmHg 28%
    14:00 +20°C° 0 mm 6 mps 760 mmHg 31%
    15:00 +19°C° 0 mm 5 mps 759 mmHg 34%
    16:00 +19°C° 0 mm 5 mps 759 mmHg 37%
    17:00 +16°C° 0 mm 5 mps 759 mmHg 39%
    18:00 +14°C° 0 mm 5 mps 760 mmHg 41%
    19:00 +12°C° 0 mm 5 mps 760 mmHg 44%
    20:00 +11°C° 0 mm 6 mps 760 mmHg 43%
    21:00 +11°C° 0 mm 6 mps 761 mmHg 42%
    22:00 +11°C° 0 mm 6 mps 761 mmHg 41%
    23:00 +11°C° 0 mm 6 mps 761 mmHg 41%

    Day after tomorrow, 18 July, Wednesday

    Time Temperature Precipitation Wind Pressure Humidity
    00:00 +11°C° 0 mm 6 mps 761 mmHg 41%
    01:00 +11°C° 0 mm 6 mps 761 mmHg 41%
    02:00 +12°C° 0 mm 5 mps 761 mmHg 44%
    03:00 +10°C° 0 mm 5 mps 761 mmHg 47%
    04:00 +11°C° 0 mm 4 mps 761 mmHg 50%
    05:00 +10°C° 0 mm 4 mps 762 mmHg 53%
    06:00 +10°C° 0 mm 4 mps 763 mmHg 57%
    07:00 +9°C° 0 mm 3 mps 764 mmHg 60%
    08:00 +11°C° 0 mm 4 mps 764 mmHg 56%
    09:00 +13°C° 0 mm 4 mps 764 mmHg 52%
    10:00 +15°C° 0 mm 4 mps 765 mmHg 48%
    11:00 +17°C° 0 mm 4 mps 764 mmHg 44%
    12:00 +18°C° 0 mm 3 mps 764 mmHg 39%
    13:00 +19°C° 0 mm 3 mps 763 mmHg 35%
    14:00 +19°C° 0 mm 3 mps 763 mmHg 39%
    15:00 +19°C° 0 mm 2 mps 763 mmHg 42%
    16:00 +19°C° 0 mm 1 mps 762 mmHg 46%
    17:00 +16°C° 0 mm 2 mps 763 mmHg 50%
    18:00 +14°C° 0 mm 2 mps 763 mmHg 55%
    19:00 +12°C° 0 mm 2 mps 764 mmHg 59%
    20:00 +12°C° 0 mm 2 mps 764 mmHg 60%
    21:00 +10°C° 0 mm 3 mps 764 mmHg 61%
    22:00 +9°C° 0 mm 3 mps 765 mmHg 63%
    23:00 +9°C° 0 mm 3 mps 765 mmHg 65%

    19 July, Thursday

    Time Temperature Precipitation Wind Pressure Humidity
    00:00 +8°C° 0 mm 3 mps 764 mmHg 66%
    01:00 +8°C° 0 mm 3 mps 764 mmHg 68%
    02:00 +8°C° 0 mm 3 mps 764 mmHg 69%
    03:00 +7°C° 0 mm 3 mps 764 mmHg 71%
    04:00 +7°C° 0 mm 3 mps 764 mmHg 72%
    05:00 +7°C° 0 mm 3 mps 764 mmHg 72%
    06:00 +7°C° 0 mm 3 mps 764 mmHg 73%
    07:00 +6°C° 0 mm 4 mps 764 mmHg 74%
    08:00 +10°C° 0 mm 4 mps 764 mmHg 66%
    09:00 +13°C° 0 mm 4 mps 764 mmHg 58%
    10:00 +15°C° 0 mm 4 mps 764 mmHg 50%
    11:00 +18°C° 0 mm 4 mps 763 mmHg 45%
    12:00 +20°C° 0 mm 4 mps 762 mmHg 41%
    13:00 +21°C° 0 mm 4 mps 761 mmHg 36%
    14:00 +21°C° 0 mm 4 mps 760 mmHg 39%
    15:00 +21°C° 0 mm 3 mps 760 mmHg 42%
    16:00 +20°C° 0 mm 3 mps 759 mmHg 45%
    17:00 +18°C° 0 mm 3 mps 759 mmHg 49%
    18:00 +15°C° 0 mm 4 mps 760 mmHg 53%
    19:00 +13°C° 0 mm 4 mps 760 mmHg 57%
    20:00 +13°C° 0 mm 4 mps 760 mmHg 57%
    21:00 +12°C° 0 mm 5 mps 759 mmHg 57%
    22:00 +12°C° 0 mm 5 mps 759 mmHg 57%
    23:00 +10°C° 0 mm 5 mps 759 mmHg 57%

    20 July, Friday

    Time Temperature Precipitation Wind Pressure Humidity
    00:00 +11°C° 0 mm 4 mps 758 mmHg 57%
    01:00 +11°C° 0 mm 4 mps 758 mmHg 56%
    02:00 +10°C° 0 mm 5 mps 757 mmHg 53%
    03:00 +10°C° 0 mm 5 mps 756 mmHg 50%
    04:00 +12°C° 0 mm 5 mps 756 mmHg 47%
    05:00 +11°C° 0 mm 6 mps 755 mmHg 48%
    06:00 +13°C° 0 mm 6 mps 755 mmHg 49%
    07:00 +12°C° 0 mm 7 mps 755 mmHg 50%
    08:00 +15°C° 0 mm 7 mps 755 mmHg 49%
    09:00 +16°C° 0 mm 8 mps 754 mmHg 49%
    10:00 +18°C° 0 mm 9 mps 754 mmHg 48%
    11:00 +17°C° 0.1 mm 9 mps 754 mmHg 50%
    12:00 +15°C° 0.1 mm 9 mps 754 mmHg 53%
    13:00 +13°C° 0.1 mm 10 mps 754 mmHg 55%
    14:00 +13°C° 0 mm 9 mps 755 mmHg 51%
    15:00 +12°C° 0 mm 9 mps 756 mmHg 46%
    16:00 +12°C° 0 mm 9 mps 757 mmHg 42%
    17:00 +11°C° 0 mm 9 mps 758 mmHg 45%
    18:00 +10°C° 0 mm 8 mps 759 mmHg 47%
    19:00 +7°C° 0 mm 8 mps 760 mmHg 50%
    20:00 +7°C° 0 mm 8 mps 760 mmHg 52%
    21:00 +6°C° 0 mm 7 mps 761 mmHg 54%
    22:00 +6°C° 0 mm 7 mps 761 mmHg 56%
    23:00 +6°C° 0 mm 7 mps 761 mmHg 56%

    21 July, Saturday

    Time Temperature Precipitation Wind Pressure Humidity
    00:00 +5°C° 0 mm 7 mps 762 mmHg 57%
    01:00 +5°C° 0 mm 7 mps 762 mmHg 58%
    02:00 +5°C° 0 mm 6 mps 762 mmHg 60%
    03:00 +5°C° 0 mm 6 mps 763 mmHg 62%
    04:00 +5°C° 0 mm 6 mps 763 mmHg 65%
    05:00 +4°C° 0 mm 6 mps 764 mmHg 67%
    06:00 +5°C° 0 mm 5 mps 765 mmHg 69%
    07:00 +5°C° 0 mm 5 mps 766 mmHg 71%
    08:00 +6°C° 0 mm 5 mps 766 mmHg 65%
    09:00 +8°C° 0 mm 5 mps 766 mmHg 58%
    10:00 +10°C° 0 mm 5 mps 766 mmHg 52%
    11:00 +13°C° 0 mm 4 mps 766 mmHg 47%
    12:00 +14°C° 0 mm 4 mps 765 mmHg 42%
    13:00 +17°C° 0 mm 3 mps 765 mmHg 37%
    14:00 +17°C° 0 mm 3 mps 765 mmHg 39%
    15:00 +16°C° 0 mm 2 mps 765 mmHg 41%
    16:00 +16°C° 0 mm 2 mps 765 mmHg 43%
    17:00 +14°C° 0 mm 2 mps 766 mmHg 49%
    18:00 +12°C° 0 mm 2 mps 766 mmHg 55%
    19:00 +10°C° 0 mm 1 mps 767 mmHg 61%
    20:00 +9°C° 0 mm 1 mps 767 mmHg 62%
    21:00 +8°C° 0 mm 2 mps 767 mmHg 63%
    22:00 +8°C° 0 mm 2 mps 768 mmHg 64%
    23:00 +7°C° 0 mm 2 mps 767 mmHg 64%
    Show more